Year,Month,Day,Hour,Minute,Value (Times are PST for temperature in C)
2011,08,24,07,16,13.50
2011,08,24,07,17,13.50
2011,08,24,07,18,13.50
2011,08,24,07,19,13.60
2011,08,24,07,20,13.60
2011,08,24,07,21,13.60
2011,08,24,07,22,13.60
2011,08,24,07,23,13.60
2011,08,24,07,24,13.70
2011,08,24,07,25,13.70
2011,08,24,07,26,13.70
2011,08,24,07,27,13.70
2011,08,24,07,28,13.70
2011,08,24,07,29,13.70
2011,08,24,07,30,13.70
2011,08,24,07,31,13.70
2011,08,24,07,32,13.70
2011,08,24,07,33,13.70
2011,08,24,07,34,13.80
2011,08,24,07,35,13.80
2011,08,24,07,36,13.80
2011,08,24,07,37,13.80
2011,08,24,07,38,13.80
2011,08,24,07,39,13.70
2011,08,24,07,40,13.70
2011,08,24,07,41,13.60
2011,08,24,07,42,13.50
2011,08,24,07,43,13.40
2011,08,24,07,44,13.30
2011,08,24,07,45,13.30
2011,08,24,07,46,13.20
2011,08,24,07,47,13.20
2011,08,24,07,48,13.10
2011,08,24,07,49,13.10
2011,08,24,07,50,13.10
2011,08,24,07,51,13.10
2011,08,24,07,52,13.20
2011,08,24,07,53,13.20
2011,08,24,07,54,13.20
2011,08,24,07,55,13.20
2011,08,24,07,56,13.20
2011,08,24,07,57,13.20
2011,08,24,07,58,13.20
2011,08,24,07,59,13.20
2011,08,24,08,00,13.10
2011,08,24,08,01,13.10
2011,08,24,08,02,13.10
2011,08,24,08,03,13.00
2011,08,24,08,04,13.00
2011,08,24,08,05,13.00
2011,08,24,08,06,13.00
2011,08,24,08,07,13.00
2011,08,24,08,08,13.00
2011,08,24,08,09,13.00
2011,08,24,08,10,13.10
2011,08,24,08,11,13.10
2011,08,24,08,12,13.10
2011,08,24,08,13,13.20
2011,08,24,08,14,13.30
2011,08,24,08,15,13.30
2011,08,24,08,16,13.30
2011,08,24,08,17,13.30
2011,08,24,08,18,13.30
2011,08,24,08,19,13.30
2011,08,24,08,20,13.40
2011,08,24,08,21,13.40
2011,08,24,08,22,13.40
2011,08,24,08,23,13.30
2011,08,24,08,24,13.30
2011,08,24,08,25,13.30
2011,08,24,08,26,13.30
2011,08,24,08,27,13.40
2011,08,24,08,28,13.40
2011,08,24,08,29,13.50
2011,08,24,08,30,13.50
2011,08,24,08,31,13.60
2011,08,24,08,32,13.70
2011,08,24,08,33,13.70
2011,08,24,08,34,13.70
2011,08,24,08,35,13.80
2011,08,24,08,36,13.80
2011,08,24,08,37,13.90
2011,08,24,08,38,13.90
2011,08,24,08,39,13.90
2011,08,24,08,40,13.90
2011,08,24,08,41,13.90
2011,08,24,08,42,13.90
2011,08,24,08,43,13.90
2011,08,24,08,44,13.90
2011,08,24,08,45,13.90
2011,08,24,08,46,13.90
2011,08,24,08,47,13.90
2011,08,24,08,48,13.90
2011,08,24,08,49,13.90
2011,08,24,08,50,13.90
